Reflectivity
-20 -20 -20 -17 21 -9 16 16 -20 9 -10 22 -20 -20 -20 -20 -20 -20 -20 -20 -20 -18 2 -20 -16 -20 -20 -20 -20 -20 -20 -20 -19 -20 -20 5 -13 -4 10 10 -13 -20 -20 -20 -20 -20 -20 -20 -20
-20 -20 -14 17 11 11 13 -4 17 30 15 -13 -20 -20 -20 -20 -13 3 -20 -20 -20 -15 -5 -20 -5 -20 -20 -20 -20 -20 -20 15 -12 -20 -4 2 5 8 2 -0 -11 -11 -20 -20 -20 -20 -20 -20 -20
-20 -20 30 42 22 17 33 5 21 -20 15 -20 -20 -20 -20 -20 -8 -20 -20 -20 -20 -20 -20 -20 -20 -20 -20 -20 -20 -20 -20 -20 -20 -20 -20 7 -1 -20 5 3 -20 -20 -20 -20 -20 -20 -20 -20 -20
-20 23 26 18 -4 29 26 30 -20 -20 -20 -20 -20 -20 -20 -20 -20 -20 -20 -20 -20 -20 -20 10 -20 -20 -20 -20 -20 -20 -20 -20 -20 -20 5 -20 -11 -20 -2 -20 -20 -20 -20 -20 -20 -20 -20 -20 -20
-12 16 -0 -18 34 -10 30 25 24 -7 17 -12 -20 -20 -20 -20 -20 -20 -20 -20 -20 -20 -20 -14 -6 -12 -20 -20 -20 -20 -20 -20 -20 -8 -20 -2 -20 -20 -20 -20 -20 -20 -20 -20 -20 -20 -20 -20 -20
-20 -20 9 15 30 14 15 1 32 11 -20 -20 -20 -20 -20 -20 -20 -20 -20 -20 -20 -20 -20 -20 -12 -20 -20 -20 -20 -20 -20 -20 -20 -20 -20 -10 -20 -20 -20 -20 -20 -20 -20 -20 -20 -20 6 -20 -20
-20 19 -8 2 29 34 29 23 24 29 -20 -20 -20 -20 -20 -20 -20 -20 -20 -20 -20 -20 -20 -20 6 -20 -20 -20 -19 -20 -20 -20 -20 -20 -20 -20 -20 -20 -20 -20 -20 -20 -20 -20 -20 -10 -20 -13 15
-20 -5 20 25 20 3 9 22 28 -13 3 -20 -20 -20 -20 -20 -20 -20 -20 -20 -20 -20 -20 -20 -20 -20 -20 -20 -12 -20 -20 -20 -20 -20 -20 -20 -20 -20 -20 -20 -20 -20 -20 -20 -20 -20 -20 -20 26
-20 -20 -20 -12 11 16 -17 29 5 -5 -11 -20 -20 -20 -20 -20 -20 -20 -20 15 -20 -20 -20 -20 -20 -20 -20 -20 -20 -20 -20 -20 -20 -20 -20 -20 -20 -20 -20 -20 -20 -20 -20 -20 -20 -20 -20 -20 -20
-20 22 -12 -20 -16 27 27 15 25 -20 -20 -20 -20 -20 -20 -20 -20 -20 -20 -20 -20 -20 -20 -20 -20 -20 -20 -20 -20 -20 -20 -20 -20 -20 -20 -20 -20 -20 -20 -20 -20 -20 -20 -20 -20 -20 -20 -6 -20
20 -20 -20 -20 2 -18 1 -20 -20 -20 -20 -20 -20 -20 -20 -20 -20 -20 -20 -20 -20 -20 -20 -20 -20 -20 -20 -20 -20 -20 -20 -20 -20 -20 -20 -20 -20 -20 -20 -20 -20 -20 -20 -20 -20 -20 -20 -20 -20
-20 -20 -20 -20 -5 11 -19 -18 -20 -20 -20 -20 -20 -20 -20 -20 -20 -20 -20 -20 -20 -20 -20 -20 -20 -20 -20 -20 -20 -20 -20 -20 -20 -20 -20 -20 -20 -20 -20 -20 -20 -20 -20 -20 -20 -20 -20 -20 -20
-20 -20 -20 -20 -20 -20 -20 -20 -20 -20 -20 -20 -20 -20 -20 -20 -20 -20 -20 -20 -20 -20 -20 -20 -20 -20 -20 -20 -20 -20 -20 -20 -20 -20 -20 -20 -20 -20 -20 -20 -20 -20 -20 -20 -20 -20 -20 -20 -20
-20 -20 -10 -0 -20 -20 -13 -20 -20 -20 -20 -20 -20 -20 -20 -20 -20 -20 -20 -20 -20 -20 -20 -20 -20 -20 -20 -20 -20 -20 -20 -20 -20 -20 -20 -20 -20 -20 -20 -20 -20 -20 -20 -20 -3 -20 -20 -20 -20
-20 -20 -19 -16 -20 -20 -20 -20 -20 -20 -20 -20 -20 -20 -20 -20 -20 -20 -20 -20 -20 -20 -20 -20 -20 -20 -20 -20 -20 -20 -20 -20 -20 -20 -20 -20 -20 -20 -20 -20 -20 -20 -20 -20 -20 -20 -20 -20 -20
-20 -20 -11 -20 -20 -13 -1 -20 -20 -20 -20 -20 -20 -20 -20 -20 -20 -20 -20 -20 -20 -20 -20 -20 -20 -20 -20 -20 -20 -20 -20 -20 -20 -20 -20 -20 -20 -20 -20 -20 -20 -20 -20 -20 -20 -20 -20 -20 -20
-20 -20 -20 -20 -20 21 20 4 -20 -20 -20 -20 -20 -20 -20 -20 -20 -20 -20 -20 -20 -20 -20 -20 -20 -20 -20 -20 -20 -20 -20 -20 -20 -20 -20 -20 -20 -20 -20 -20 -20 -20 7 -20 -20 -19 -20 -20 -18
-20 -20 -20 -20 -20 -19 13 -3 -20 -20 -20 -20 -20 -20 -20 -20 -20 -20 -20 -20 -20 -20 -20 -20 -20 -20 -20 -20 -20 -20 -20 -20 -20 -20 -20 -20 -20 -20 -20 -20 -20 -20 -20 -10 -20 -20 -20 -20 -20
-20 -20 -20 -20 -20 4 -11 -20 -20 -20 -20 -20 -20 -20 -20 -20 -20 -20 -20 -20 -20 -20 -20 -20 -20 -20 -20 -20 -20 -20 -20 -20 -20 -20 -20 -20 -20 -20 -20 -20 -20 -20 -20 -20 -20 -20 -20 -20 -20
-20 -20 -20 -20 -20 -20 -20 2 -20 -20 -20 -20 -20 -20 -4 -20 -20 -20 -20 -20 -20 -20 -20 -20 -20 -20 -20 -20 -20 -20 -20 -20 -20 -20 -20 -20 -20 -20 -20 -20 -20 -20 -20 -20 -20 -20 -20 -20 -20
-20 -20 -20 -20 -20 -20 -17 -20 -14 -20 -20 -20 -20 -20 -18 -19 -20 -20 -20 -20 -20 -20 -20 -20 -20 -20 -20 -20 -20 -20 -20 -20 -20 -20 -20 -20 -20 -20 -20 -20 -20 -20 -20 -20 -20 -20 -20 -20 -20
-20 -20 -20 -20 -20 -20 -20 -20 -2 -20 -20 -20 -20 -20 -20 -20 -20 -20 -20 -20 -20 -20 -20 -20 -20 -20 -20 -20 -20 -20 -20 -20 -20 -20 -20 -20 -20 -20 -20 -20 -20 -20 -20 -20 -20 -20 -20 -20 -20
-20 -20 -20 -20 -20 -20 -20 -20 -20 -20 -20 -20 -20 -20 -20 -20 -20 -20 -20 -20 -20 -20 -20 -20 -20 -20 -20 -20 -20 -20 -20 -20 -20 -20 -20 -20 -20 -20 -20 -20 -20 -20 -20 -20 -20 -20 -20 -20 -20
-20 -20 -20 -20 -20 -20 -20 -20 -20 -20 -20 -20 -20 -20 -20 -20 -20 -20 -20 -20 -20 -20 -20 -20 -20 -20 -20 -20 -20 -20 -20 -20 -20 -20 -20 -20 -20 -20 -20 -20 -20 -20 -20 -20 -20 -20 -20 -20 -20
-20 -20 -20 -20 -20 -20 -20 -20 -20 -20 -20 -20 -20 -20 -20 -20 -20 -20 -20 -20 -20 -20 -20 -20 -20 -20 -20 -20 -20 -20 -20 -20 -20 -20 -20 -20 -20 -20 -20 -20 -20 -20 -20 -20 -20 -20 -20 -20 -20
-20 -20 -20 -20 -20 -20 -20 -20 -20 -20 -20 -20 -20 -20 -20 -20 -20 -20 -20 -20 -20 -20 -20 -20 -20 -20 -20 -20 -20 -20 -20 -20 -20 -20 -20 -20 -20 -20 -20 -20 -20 -20 -20 -20 -20 -20 -20 -20 -20
-20 -20 -20 -20 -20 -20 -20 -20 -20 -20 -20 -20 -20 -20 -20 -20 -20 -20 -20 -20 -20 -20 -20 -20 -20 -20 -20 -20 -20 -20 -20 -20 -20 -20 -20 -20 -20 -20 -20 -20 -20 -20 -20 -20 -20 -20 -20 -20 -20
-20 -20 -20 -20 -20 -20 -20 -20 -20 -20 -20 -20 -20 -20 -20 -20 -20 -20 -20 -20 -20 -20 -20 -20 -20 -20 -20 -20 -20 -20 -20 -20 -20 -20 -20 -20 -20 -20 -20 -20 -20 -20 -20 -20 -20 -20 -20 -20 -20
-20 -20 -20 -20 -20 -20 -20 -20 -20 -20 -20 -20 -20 -20 -20 -20 -20 -20 -20 -20 -20 -20 -20 -20 -20 -20 -20 -20 -20 -20 -20 -20 -20 -20 -20 -20 -20 -20 -20 -20 -20 -20 -20 -9 -20 -20 -20 -20 -20
-20 -20 -20 -20 -20 -20 -20 -20 -20 -20 -20 -20 -20 -20 -20 -20 -20 -20 -20 -20 -20 -20 -20 -20 -20 -20 -20 -20 -20 -20 -20 -20 -20 -20 -20 -20 -20 -20 -20 -20 -20 -20 -20 -20 -20 -20 -20 -20 -20
Wind_Speed
9 7 2 2 2 2 2 2 1 5 4 4 11 2 5 8 2 4 12 11 15 9 10 13 15 17 17 15 14 15 15 15 14 14 14 15 15 15 14 14 14 13 12 12 12 11 11 12 10
8 8 2 1 2 1 2 3 11 15 6 10 6 7 5 6 5 12 9 15 13 9 9 12 15 16 16 16 14 14 15 13 14 13 14 14 14 14 13 13 13 12 11 11 10 10 10 10 11
12 5 1 2 3 2 3 9 11 15 10 11 5 5 5 4 12 15 13 17 14 9 9 13 16 16 17 15 14 14 13 15 14 14 13 14 13 13 13 12 12 11 10 9 9 8 8 9 10
6 1 3 2 2 5 3 1 10 18 16 3 12 9 7 7 16 9 17 17 13 12 10 16 17 17 16 15 15 14 13 13 13 12 12 13 12 13 12 12 11 10 9 8 8 7 7 7 8
1 3 1 1 4 6 6 11 11 15 5 8 3 8 10 9 14 20 17 15 13 12 10 12 17 17 16 15 15 13 13 12 12 11 11 12 11 12 12 11 10 10 10 9 8 7 7 7 8
2 1 3 3 8 12 10 11 8 6 10 13 13 10 3 13 19 16 13 11 14 13 10 12 16 18 16 15 14 13 12 11 10 11 11 10 10 10 10 10 9 10 10 9 7 7 7 7 7
5 1 2 1 3 1 7 9 4 9 13 8 12 7 7 14 17 14 10 14 13 12 10 9 10 14 16 14 14 13 12 11 10 10 9 9 9 8 8 7 7 10 10 8 6 7 6 6 6
4 3 2 1 6 6 7 9 19 10 5 14 13 8 11 15 19 13 9 13 13 11 10 8 6 6 6 7 14 12 11 11 10 9 8 7 7 6 7 5 5 7 7 6 5 5 5 4 4
5 1 2 4 10 1 5 6 14 9 15 3 5 10 19 24 19 14 10 13 12 10 10 8 8 6 6 6 8 11 11 10 10 8 9 7 3 4 2 3 4 4 5 4 3 3 4 4 4
2 2 8 9 6 13 4 2 8 9 11 12 17 22 21 22 20 17 14 15 14 13 11 9 8 7 6 6 5 5 6 4 4 5 4 3 4 3 1 3 4 3 2 1 4 5 5 4 2
9 7 7 7 13 6 3 13 4 18 8 22 29 27 26 24 18 16 15 15 13 15 11 11 10 8 7 6 4 3 2 3 3 5 4 4 2 2 0 1 1 0 1 1 2 3 2 3 2
8 15 8 6 9 8 7 13 13 9 7 21 29 29 26 24 18 16 15 14 16 16 14 13 11 10 7 5 5 4 4 3 3 4 4 4 2 3 2 3 2 1 0 2 1 0 2 2 2
14 16 15 11 13 6 3 12 11 8 16 22 22 23 23 20 17 14 15 16 16 15 15 14 12 11 8 7 4 4 4 4 4 4 5 3 4 3 2 2 1 3 2 1 3 2 1 2 4
6 18 11 9 6 3 8 1 8 15 23 23 23 22 21 20 18 14 12 18 17 16 16 15 14 11 10 8 6 4 5 5 5 4 5 5 5 4 3 1 3 3 2 2 3 2 1 2 2
17 14 11 18 18 5 12 5 12 24 24 25 22 20 19 19 16 16 14 17 18 15 17 16 15 13 12 9 6 5 5 7 6 6 6 5 4 5 4 4 3 4 2 2 3 3 1 2 2
7 11 13 17 12 11 15 11 16 23 26 24 23 19 19 18 20 18 17 14 17 15 16 16 14 14 11 8 6 4 4 5 5 6 6 6 6 6 5 4 4 3 3 3 2 2 2 3 2
3 8 8 17 18 12 12 6 21 21 21 23 23 22 20 17 19 19 19 14 15 14 18 17 15 15 12 8 6 5 6 3 4 4 6 7 7 6 5 4 3 4 2 2 2 0 2 1 3
6 5 7 11 15 24 21 10 26 26 26 27 25 25 23 21 21 19 18 17 13 14 19 19 14 14 13 6 5 3 1 3 2 4 4 6 5 7 5 3 4 3 2 2 2 1 1 2 2
6 8 10 9 11 9 24 21 28 27 23 24 24 23 24 24 23 20 17 18 15 14 19 20 18 14 10 5 4 3 4 2 3 3 7 6 5 6 6 4 3 2 3 3 3 2 2 3 1
12 10 14 14 15 6 5 26 29 26 29 30 25 25 24 22 23 22 21 19 18 16 19 20 19 16 12 9 7 4 4 2 2 3 5 7 6 7 6 6 5 4 2 3 2 3 1 1 0
14 15 14 10 10 5 4 12 23 24 18 14 18 25 26 30 27 27 24 23 20 17 21 20 19 18 15 12 5 3 3 2 1 2 3 5 6 7 6 6 5 4 3 3 3 3 4 2 1
16 18 17 15 6 7 5 6 18 21 21 18 22 23 24 24 23 26 26 26 24 19 20 19 19 18 15 13 11 10 9 8 5 4 3 5 7 7 7 7 6 5 4 5 4 3 3 3 3
18 11 14 18 5 2 16 1 15 28 22 26 20 22 23 25 26 24 28 29 28 22 21 19 19 19 16 16 14 12 10 6 4 3 6 6 7 8 9 7 7 6 4 5 6 5 4 3 3
9 11 9 10 3 9 20 7 8 23 30 28 21 24 20 22 24 26 27 22 23 22 21 19 19 19 18 17 15 16 14 9 7 5 6 5 5 7 7 7 6 6 6 6 5 5 6 5 3
15 8 7 8 7 10 13 6 13 20 30 37 35 33 24 22 23 24 24 24 21 24 24 21 21 19 19 19 17 17 14 12 11 8 6 7 5 3 7 7 7 5 6 6 6 6 6 5 4
13 11 8 14 6 11 5 9 8 15 20 30 32 35 27 24 24 26 27 25 23 24 24 24 23 22 20 20 19 16 14 10 9 8 5 7 8 7 9 10 8 9 8 6 6 4 4 5 4
13 19 13 6 3 3 5 5 4 11 11 10 29 25 25 26 27 27 25 26 24 22 25 25 24 22 21 21 16 15 13 14 12 10 8 5 6 7 9 12 11 9 8 8 7 5 6 5 5
18 9 8 3 7 5 7 6 7 9 14 8 12 27 29 28 28 26 24 26 24 22 24 24 24 24 22 19 17 15 15 14 13 10 9 8 8 8 10 11 11 10 10 9 8 5 5 6 5
6 15 6 7 7 7 4 11 9 11 13 13 12 24 30 29 29 28 26 27 26 22 22 22 21 22 19 18 18 17 15 14 11 10 10 11 7 9 9 11 11 12 11 10 7 8 8 10 8
21 8 11 10 10 4 5 13 5 11 17 18 21 18 26 32 31 27 26 26 23 23 21 22 20 20 20 20 18 17 14 14 13 12 11 11 12 8 11 9 11 11 11 12 13 12 11 11 10
Wind_Direction
162 158 176 172 228 229 271 265 291 128 175 195 159 207 124 34 28 161 128 137 132 135 139 131 131 126 122 118 116 106 107 107 103 103 99 96 95 95 102 106 111 114 112 111 109 106 103 102 105
153 148 238 294 224 262 227 251 151 199 238 133 130 113 45 86 82 116 118 134 132 134 129 132 131 128 123 122 118 111 109 108 109 98 93 99 99 103 103 105 108 112 115 115 114 111 107 103 98
162 178 71 122 253 263 252 197 203 206 168 158 119 58 65 84 122 138 134 130 133 123 124 139 136 132 129 127 122 114 111 110 107 101 97 101 101 99 101 105 105 110 115 116 116 115 111 105 100
173 190 222 231 306 248 247 69 198 145 151 103 119 80 69 128 138 136 138 135 130 131 135 139 140 134 128 130 121 118 114 110 104 105 97 100 99 101 101 103 106 108 104 100 96 105 105 107 109
326 237 305 56 322 281 339 282 196 161 111 128 115 81 104 152 113 137 141 141 134 135 139 139 141 136 134 130 125 125 119 113 108 103 96 96 101 106 108 109 110 105 94 88 83 92 90 88 103
90 169 52 22 337 317 312 278 253 123 97 118 100 101 73 134 134 149 143 138 137 136 137 144 145 137 137 140 132 128 125 119 116 114 109 102 108 110 112 114 114 105 96 90 91 83 82 80 97
121 118 80 246 248 208 272 285 230 157 138 130 137 91 124 143 149 149 140 134 135 137 137 142 141 142 143 141 135 136 132 134 129 120 117 113 109 115 116 118 113 102 102 105 94 84 68 59 91
110 96 250 6 329 306 228 219 171 150 109 115 141 149 162 159 155 155 143 135 137 140 141 141 136 129 138 149 143 143 145 140 132 127 120 112 94 124 123 121 99 94 100 105 109 104 95 58 58
153 71 203 208 212 62 82 202 164 95 133 151 172 131 144 149 150 159 145 141 138 144 150 147 138 136 146 145 154 156 152 150 148 129 123 97 75 32 311 157 131 106 107 90 71 104 134 116 52
166 179 224 191 211 118 197 267 132 130 143 110 106 115 143 147 156 164 159 150 155 156 158 157 152 152 164 159 153 160 172 163 147 149 136 142 130 115 65 236 165 156 121 106 38 339 349 109 158
181 216 217 233 244 252 230 155 118 139 154 156 145 148 150 156 164 170 164 156 163 162 161 167 163 162 178 163 167 174 190 152 153 170 148 184 135 101 4 151 24 92 94 29 62 9 5 339 168
233 231 243 234 262 274 189 155 158 210 183 163 150 148 153 163 170 173 167 163 163 165 167 169 171 169 190 163 181 177 183 158 174 179 175 178 131 110 140 154 217 250 214 230 298 302 326 2 241
235 242 228 242 250 229 212 179 159 138 132 139 144 152 157 166 174 172 171 161 166 170 169 173 175 174 187 180 180 178 174 179 177 173 203 167 120 167 164 111 234 222 246 347 298 224 331 46 296
224 233 254 288 208 237 163 306 101 140 141 145 152 163 166 171 177 170 173 166 172 174 174 177 180 176 182 189 182 186 176 192 175 171 210 217 145 166 152 149 228 238 193 229 280 293 69 193 106
251 263 203 210 246 176 174 150 156 152 153 153 159 163 171 177 181 187 184 174 177 180 176 180 181 179 185 185 184 192 209 197 182 180 203 210 172 163 145 189 180 218 181 267 286 334 270 55 67
230 234 214 213 228 248 190 165 164 160 156 159 166 171 178 180 189 190 191 187 181 179 178 182 183 182 183 171 182 171 192 150 181 171 183 196 180 150 163 165 183 226 192 186 205 232 4 21 40
233 243 231 216 210 211 182 147 161 166 165 165 173 177 184 185 191 194 196 186 188 175 180 184 184 182 182 181 171 171 145 135 160 164 179 175 163 163 143 148 175 201 218 225 193 11 115 230 277
202 203 218 229 222 224 203 176 161 173 173 175 182 179 184 187 202 197 198 199 184 176 181 183 181 181 177 173 155 150 164 133 154 178 183 172 169 151 146 170 171 187 143 144 154 106 128 167 215
241 213 246 267 237 210 194 155 171 180 181 182 184 185 186 188 195 206 204 203 197 176 179 184 179 180 165 163 156 164 190 217 144 189 186 186 173 155 151 172 185 126 170 188 164 122 72 39 82
230 246 250 274 269 192 197 170 175 178 188 187 183 187 187 188 194 200 205 204 201 180 182 184 184 177 179 177 179 157 158 192 185 165 196 178 183 166 163 174 186 171 161 182 179 127 105 67 330
222 227 245 230 285 298 220 160 179 198 180 190 197 193 188 186 188 194 200 205 202 181 185 184 185 182 184 179 154 103 81 40 215 204 189 181 180 178 173 184 171 189 178 182 198 157 129 148 305
222 225 240 251 246 249 183 229 185 176 194 207 205 196 194 195 186 191 193 200 203 189 187 181 183 182 182 173 175 176 189 195 212 194 170 182 176 189 183 181 174 184 193 192 187 172 155 143 177
224 226 232 247 219 262 270 197 197 178 193 204 211 214 196 195 191 189 191 195 197 191 185 183 181 181 177 179 179 182 190 196 184 194 180 183 188 189 192 184 177 185 189 208 174 168 177 181 150
200 213 247 250 184 240 251 166 242 184 189 208 209 222 209 194 194 194 189 181 185 184 182 180 177 182 179 182 183 186 188 185 189 189 193 179 191 196 195 188 186 188 191 199 184 191 185 185 157
214 150 230 249 224 228 240 173 234 188 204 197 196 214 214 202 195 194 190 185 178 181 182 180 180 181 183 185 185 188 187 190 195 193 182 174 178 174 202 187 193 191 191 197 183 178 185 188 173
212 188 161 215 201 232 194 210 240 232 191 209 208 201 198 199 197 194 192 192 183 183 183 182 185 184 183 187 190 187 184 195 201 197 186 192 193 192 188 198 198 202 186 193 190 179 184 177 195
200 212 180 131 230 143 238 257 256 236 243 175 196 198 209 199 196 199 193 194 191 183 185 185 186 190 188 189 187 186 190 198 202 203 198 185 178 187 192 193 195 197 189 187 184 191 196 180 192
201 153 186 179 213 249 264 232 215 210 245 214 176 189 196 201 200 199 193 193 192 191 187 184 187 189 189 189 191 194 192 194 201 195 193 190 186 194 189 193 195 196 198 188 180 192 191 190 200
188 204 191 150 151 191 246 261 220 219 231 242 198 186 189 192 193 197 191 192 194 190 186 185 186 189 189 189 191 197 200 200 189 197 201 206 193 191 197 195 195 200 200 195 183 197 199 201 202
224 195 186 202 216 191 168 259 182 200 229 227 238 181 187 188 192 192 188 188 187 189 183 186 185 186 189 192 192 195 194 194 197 198 203 204 210 201 196 193 191 193 198 199 200 201 202 205 206